sat.trackr.live / text

‹ back to catalog

STARLINK-3797

NORAD 52337 · 2022-045G

PAYLOAD ACTIVE UNKNOWN

§ Identity

Operator
Country
US
Launch date
2022-04-29
Launch site
AFETR
Launch vehicle
Mass (kg)
RCS (m²)

Purposes: comms

External: N2YO · Heavens-Above · Gunter

§ Orbital elements

Epoch: 2026-05-25T05:23:37.084992Z

Period
95.44 min
Inclination
53.2156°
Eccentricity
0.0002288
Mean motion
15.08819792 rev/d
Perigee alt
538.2 km
Apogee alt
541.4 km
Semi-major
6,917.9 km
B*
2.0203e-4
RAAN
225.5444°
Arg perigee
59.1468°
Mean anomaly
300.9748°
Rev number
22,719

§ Raw data

STARLINK-37971 52337U 22045G   26145.22473478  .00002927  00000+0  20203-3 0  99972 52337  53.2156 225.5444 0002288  59.1468 300.9748 15.08819792227195

JSON: /api/v1/satellites/52337 · /tle

For live sub-satellite position, see the globe view (requires WebGL).

§ Visibility from observer

Set your observer location to see the next 7 days of passes ≥ 10°. The values pass through the URL so the page stays shareable.

No JS? Fill the form by hand. The geolocation button needs JavaScript.